GFSSW_850_spd_057.txt.gz
Wind_Speed
14 13 12 11 9 9 8 8 7 7 7 6 5 4 4 4 4 6 6 9 7 8 8 6 5 5 7 3 4 4 8 8 7 5 3 8 9 5 5 7 4 5 2 4 17
13 12 12 11 10 9 8 7 7 7 6 6 5 5 3 3 5 6 8 9 8 9 8 7 6 7 6 4 3 8 9 8 4 3 3 9 11 8 7 12 12 9 8 7 15
14 11 11 10 10 9 8 7 6 5 5 5 5 4 4 5 4 7 9 9 9 9 9 9 7 6 7 5 6 4 10 1 2 1 1 7 9 6 10 12 13 13 14 13 15
13 12 10 9 9 9 8 7 6 5 4 3 4 3 5 8 3 6 9 9 10 9 9 9 8 6 6 7 5 7 4 3 1 2 2 5 3 8 16 16 3 11 7 17 18
12 12 11 10 9 9 8 7 6 5 4 4 4 4 6 4 3 4 7 8 9 10 9 8 8 8 8 5 5 8 4 4 3 2 3 4 8 9 16 18 13 11 12 16 18
11 11 11 10 9 8 7 6 6 5 4 5 4 5 5 7 5 6 6 7 9 9 10 8 4 5 2 3 8 2 5 5 4 5 3 5 9 3 9 15 18 16 16 15 18
11 10 10 9 8 8 7 6 5 4 4 4 3 4 5 5 8 9 7 7 8 9 8 9 5 2 3 4 3 3 5 6 10 6 3 3 11 17 17 10 11 20 19 19 20
11 10 10 9 9 9 8 7 6 6 5 3 3 2 2 7 9 10 9 8 8 9 9 9 9 5 1 5 4 5 3 8 7 8 3 4 13 3 4 13 17 18 19 20 22
10 10 9 8 8 8 8 8 7 7 6 4 3 2 2 6 10 11 12 8 9 10 8 10 8 4 4 6 6 7 8 12 6 7 2 11 9 2 2 8 15 17 19 22 23
9 9 8 7 6 6 6 6 7 7 7 5 6 3 5 4 11 13 12 12 8 11 7 4 4 6 7 9 10 9 10 6 8 5 6 11 16 18 14 11 16 19 20 20 22
11 8 7 5 5 3 2 3 2 2 8 4 2 1 2 6 9 13 14 12 8 8 7 5 8 10 15 14 10 5 6 7 2 3 4 12 18 19 21 22 24 27 27 27 29
16 14 11 8 6 4 3 2 2 2 2 10 13 8 3 10 4 12 16 10 9 10 4 5 12 13 3 2 7 9 12 13 8 1 3 13 22 18 23 26 26 29 28 28 28
16 15 14 12 10 9 5 3 1 1 3 3 8 8 8 9 4 12 18 7 8 13 12 14 2 6 6 7 10 12 13 12 8 4 12 11 18 15 13 16 20 29 32 31 31
12 13 12 14 11 10 9 8 4 2 4 6 6 5 7 8 6 11 15 5 5 13 11 11 7 6 8 13 12 14 8 12 6 5 6 1 9 18 17 17 13 23 24 27 22
16 14 13 18 7 10 8 10 10 4 4 7 3 3 8 8 7 7 19 8 9 8 7 5 9 10 11 8 11 2 3 4 3 6 9 13 7 9 11 10 15 19 19 17 15
11 12 14 16 11 8 9 14 14 5 10 5 5 5 6 6 2 4 8 3 1 5 6 3 1 6 5 4 6 12 7 3 1 3 8 12 12 12 14 10 6 6 4 5 3
11 12 17 14 10 13 14 17 3 5 2 7 5 6 9 7 5 7 12 12 12 8 15 10 9 4 5 6 4 10 7 4 5 5 9 5 6 14 13 12 10 11 19 9 7
9 13 14 15 14 12 21 2 6 8 13 2 4 5 8 10 7 6 6 14 18 15 7 14 10 14 13 12 8 15 13 7 6 7 10 3 9 6 7 12 14 17 16 18 13
6 8 14 17 15 20 12 6 6 6 6 10 5 5 7 7 3 11 16 15 13 19 12 11 11 4 2 8 12 7 10 10 9 3 4 9 19 19 11 11 17 21 20 19 16
6 5 12 19 19 20 5 12 12 10 9 12 15 11 11 11 8 10 12 6 14 14 24 7 14 1 3 3 8 7 3 7 6 6 9 14 18 13 6 9 6 7 8 7 6
2 3 8 18 21 12 7 10 12 4 8 10 13 13 11 8 8 6 5 2 7 3 18 13 7 3 4 11 15 7 7 6 4 7 7 11 11 9 5 2 1 1 2 4 7
2 3 9 21 12 8 12 6 4 11 15 7 7 10 10 7 7 14 12 8 3 5 6 12 4 12 11 3 4 14 18 19 7 6 6 6 16 6 1 1 2 2 5 5 2
5 5 6 22 9 12 14 20 20 9 12 12 12 13 11 12 7 13 12 6 7 3 3 2 3 3 4 5 2 6 14 9 18 2 11 9 11 3 4 3 8 9 7 6 7
5 4 5 18 17 13 17 17 19 14 17 17 6 15 15 16 11 5 9 3 6 10 12 10 6 6 10 2 4 6 13 16 16 12 20 18 25 25 17 11 10 11 8 11 15
12 6 8 7 13 14 14 8 19 14 17 14 8 17 15 13 17 21 18 16 8 6 5 9 6 12 20 23 23 20 19 16 19 23 22 25 24 31 23 18 20 24 24 25 28
9 7 7 8 18 19 14 14 16 19 12 14 17 15 16 18 18 11 2 6 14 9 10 4 4 9 16 21 20 22 20 18 21 24 24 30 28 28 33 32 27 28 30 31 28
19 14 7 11 8 13 18 19 11 15 16 19 14 14 12 11 6 8 6 4 3 3 4 6 3 3 10 11 10 10 20 25 24 23 22 21 27 22 26 23 30 33 29 30 33

GFSSW_850_spd_060.txt.gz
Wind_Speed
15 13 12 12 10 9 9 8 8 7 6 6 6 5 4 4 4 5 5 8 6 8 8 6 6 6 7 2 4 2 2 6 7 3 1 12 6 3 4 6 4 2 1 5 14
16 13 11 11 11 10 9 8 7 6 6 6 5 5 4 3 4 4 5 9 8 8 8 7 4 6 5 4 4 4 3 7 8 9 5 10 9 12 4 8 7 8 8 12 17
15 14 12 10 9 8 8 7 7 7 6 5 4 3 3 4 4 5 10 9 8 9 9 11 7 5 5 4 5 5 3 6 8 9 5 3 7 3 7 5 12 14 16 17 17
14 14 13 11 9 8 8 8 7 6 5 4 4 3 4 7 0 3 10 8 8 9 10 8 6 4 3 3 4 2 4 3 4 2 1 2 3 6 12 7 5 8 12 17 20
14 12 12 12 11 9 9 8 8 6 5 5 5 5 6 3 5 2 7 8 9 9 10 7 7 7 3 5 3 4 2 2 2 1 2 5 6 6 12 16 15 11 9 16 17
13 12 11 10 10 10 9 7 6 6 6 5 5 5 7 6 5 5 6 8 10 10 10 10 3 6 4 3 4 5 4 3 2 4 3 2 6 5 5 12 15 17 17 17 19
13 12 11 10 9 8 7 7 7 6 6 5 5 6 7 6 6 8 7 7 9 10 8 12 7 4 4 3 1 1 1 4 8 7 2 1 7 10 19 11 11 17 18 17 20
13 13 13 11 10 9 9 9 8 6 5 4 4 4 3 6 7 9 8 6 6 8 8 8 8 7 3 5 3 3 1 2 1 11 3 3 7 7 5 21 15 15 17 21 22
12 12 11 11 10 9 8 8 7 6 5 3 3 4 3 5 9 11 11 5 7 6 7 9 9 3 6 3 3 4 3 7 4 9 3 6 6 3 2 5 11 17 19 22 23
11 10 10 9 8 7 7 6 6 7 5 3 4 3 3 4 9 12 11 11 6 10 9 4 4 3 2 4 4 3 4 5 2 5 2 5 10 15 18 11 15 17 18 20 23
12 9 9 8 7 6 5 6 4 3 9 4 6 4 3 4 8 10 13 11 8 6 5 4 3 6 9 9 6 4 7 6 4 3 1 7 12 11 19 19 19 23 26 27 30
11 10 9 7 7 7 5 3 5 5 4 9 9 6 4 8 4 10 15 8 7 5 5 3 5 8 3 5 3 1 6 7 6 6 1 8 13 10 14 18 27 28 29 30 29
15 15 14 11 10 8 6 4 5 3 2 3 8 8 6 9 2 11 17 6 5 6 7 5 1 5 5 2 2 4 6 7 5 3 6 4 10 7 10 24 27 30 33 32 31
10 11 13 14 10 10 8 7 3 2 1 7 7 6 8 9 4 10 17 6 2 6 8 6 4 4 4 5 6 5 4 6 4 4 3 3 6 4 10 8 10 24 22 22 21
14 10 6 15 8 10 9 12 8 3 3 5 3 5 11 6 13 6 16 6 6 5 5 4 6 5 4 5 6 2 3 3 3 3 5 4 2 8 7 7 7 14 20 17 10
17 15 12 15 13 14 13 14 12 2 7 4 5 5 5 3 2 5 5 4 1 3 1 2 1 2 3 4 3 7 4 3 2 2 5 10 9 4 6 6 3 3 4 3 3
10 13 19 19 7 10 15 16 3 5 2 6 4 5 7 6 5 5 6 6 6 4 6 6 5 3 3 5 5 2 4 1 2 0 7 3 5 11 8 10 5 6 10 7 4
8 14 16 17 16 9 20 3 5 6 9 5 3 6 7 6 5 5 7 6 10 5 1 8 4 10 7 7 8 9 7 5 6 4 3 6 7 6 9 7 8 9 14 10 11
4 8 13 16 15 17 14 2 4 6 8 8 7 5 5 6 2 6 5 6 7 12 7 5 6 2 4 2 6 5 7 3 4 2 3 5 7 7 6 7 9 13 15 14 9
4 4 10 15 15 18 4 10 7 7 2 7 13 9 8 9 5 8 8 5 8 9 16 2 5 3 3 3 4 3 1 3 2 2 4 7 7 8 2 8 10 4 3 3 7
1 2 6 15 16 8 5 6 8 5 10 10 10 8 7 8 8 6 1 4 1 3 7 4 4 1 3 6 8 3 4 3 3 5 5 5 7 3 2 6 8 6 6 3 4
2 2 4 18 8 5 5 7 3 3 6 3 2 6 12 8 9 5 6 1 9 4 1 2 2 5 7 3 3 2 6 7 4 3 3 2 15 2 7 7 10 4 6 14 9
4 3 2 18 7 9 7 14 5 6 7 6 4 5 2 5 5 7 8 9 16 7 4 3 2 2 3 1 3 3 4 5 6 2 7 6 11 6 3 8 4 1 3 5 5
5 3 4 15 15 6 11 13 15 13 12 11 4 11 6 9 7 4 5 5 12 3 16 9 4 6 6 5 4 3 3 4 6 3 16 13 21 21 9 8 10 20 13 10 11
10 4 8 5 9 9 5 8 16 13 12 10 7 11 11 10 12 10 6 4 5 19 8 6 7 9 11 13 11 9 8 13 14 14 8 19 16 30 16 13 17 22 24 26 28
9 4 4 5 9 12 10 7 10 17 9 14 12 9 10 11 8 3 7 6 5 3 6 6 3 8 9 12 12 15 15 18 20 23 21 28 26 29 34 29 28 30 23 28 27
21 13 4 6 3 7 14 10 6 3 13 12 12 8 8 6 4 11 8 7 4 2 4 5 4 4 11 4 6 9 20 16 20 21 21 20 24 11 13 15 24 24 29 34 34

GFSSW_850_spd_063.txt.gz
Wind_Speed
18 16 14 12 12 11 10 9 8 8 7 6 5 4 3 4 5 7 8 9 4 9 9 8 8 9 9 6 4 3 4 3 3 2 4 10 3 1 7 11 5 7 7 7 17
17 16 14 13 11 10 9 8 6 6 6 6 5 5 4 4 6 8 6 8 8 9 10 9 9 11 5 4 4 4 4 3 0 2 3 7 5 7 4 8 5 8 7 10 17
17 16 15 14 11 10 9 8 7 6 5 5 5 4 4 6 5 4 7 8 9 9 11 12 7 8 3 5 4 4 5 3 2 4 5 3 3 6 6 2 10 15 15 20 18
16 15 14 13 13 11 10 10 8 7 6 5 5 4 5 9 3 1 7 8 9 9 9 10 11 7 3 3 5 2 2 4 2 2 2 3 3 1 9 4 1 13 16 21 21
17 15 14 13 12 12 11 10 9 9 7 6 5 5 7 4 2 2 7 10 10 10 10 10 10 4 3 5 5 3 1 4 4 1 1 2 2 5 8 11 12 7 15 22 21
17 16 14 12 11 11 11 9 7 7 6 6 6 7 8 2 3 4 7 9 11 11 12 12 5 3 1 5 5 1 3 4 3 3 2 1 3 2 6 9 17 18 15 18 21
15 15 14 13 11 11 9 8 7 7 6 5 6 7 8 6 4 6 6 8 10 13 12 13 6 5 4 3 3 2 2 1 6 6 2 1 5 8 20 14 11 20 17 19 21
15 15 14 13 12 10 10 9 9 8 6 6 5 7 3 7 5 8 9 9 11 11 10 11 8 7 3 7 3 2 3 1 2 9 2 4 8 9 10 14 21 16 15 22 22
13 13 12 12 12 10 9 9 9 8 7 6 6 6 3 6 10 10 10 8 9 9 7 11 10 5 5 5 4 3 2 4 2 7 3 3 5 4 7 2 16 19 18 19 23
11 12 12 11 11 10 9 9 8 8 7 6 4 4 5 7 10 13 12 11 8 12 10 6 4 3 3 4 5 4 3 3 4 4 3 2 8 11 26 23 25 25 24 21 23
12 12 12 11 10 10 10 9 6 4 10 3 7 4 10 8 10 13 14 11 12 6 5 3 4 6 10 8 6 4 3 0 2 2 3 6 7 12 25 23 24 30 31 29 28
14 11 11 11 11 10 11 8 6 5 5 8 7 7 6 11 6 12 15 8 6 4 5 5 4 8 6 6 5 2 2 3 1 1 2 4 12 10 18 22 28 33 34 32 30
15 16 11 8 11 11 10 9 8 7 4 6 11 7 7 10 4 16 19 7 4 4 6 6 3 8 5 2 4 2 4 3 2 3 2 2 9 6 6 10 18 23 28 30 32
3 13 12 9 9 11 9 9 7 6 3 5 7 7 11 9 3 14 19 7 3 9 7 5 4 5 3 3 4 2 1 5 3 4 3 4 6 5 7 11 7 17 22 25 24
10 5 5 13 8 13 10 10 8 4 3 2 5 8 13 8 14 8 18 6 8 7 6 7 6 5 3 4 6 5 0 3 3 2 2 2 1 7 5 6 10 15 10 6 6
10 19 8 9 14 15 15 16 9 4 6 4 5 5 6 3 3 6 5 4 4 4 4 3 2 3 6 3 1 7 5 6 5 3 3 8 8 5 4 6 2 4 6 5 3
16 12 14 9 7 15 13 15 3 4 1 5 5 6 4 5 3 4 6 5 6 5 4 2 2 1 4 6 7 4 6 1 3 2 6 3 2 6 8 9 3 5 5 2 2
7 14 15 14 13 6 15 4 4 6 5 2 5 6 5 6 3 6 7 5 5 2 4 6 4 9 6 7 8 7 7 5 7 4 5 3 6 5 10 14 3 2 2 1 6
3 10 14 12 14 17 4 3 6 6 6 8 5 5 5 4 7 4 7 6 9 9 7 6 5 2 3 4 8 5 5 5 4 2 3 5 6 8 7 9 15 13 5 8 7
3 6 10 15 14 17 4 3 4 3 4 4 6 6 7 8 5 7 9 6 6 11 5 4 3 3 2 2 4 6 5 3 2 1 4 4 5 6 7 12 9 6 8 8 10
2 4 6 13 13 11 3 6 6 8 5 2 4 6 5 7 7 6 8 3 5 6 15 6 4 2 1 5 8 2 3 3 4 5 5 2 6 6 7 4 8 9 10 11 9
4 1 5 16 6 3 3 5 3 1 4 2 2 3 3 6 5 6 8 4 3 7 8 2 4 4 7 2 2 3 7 6 4 3 4 4 13 3 8 7 12 10 11 8 5
4 1 2 16 6 4 4 3 4 2 4 5 5 5 5 5 4 2 3 3 11 4 7 4 1 3 4 3 3 3 4 5 4 3 7 4 12 2 12 11 12 14 18 13 8
5 1 2 14 5 2 5 5 5 7 2 1 2 3 1 3 4 7 4 2 6 5 12 8 2 5 7 4 3 4 3 2 6 5 9 13 17 14 14 13 11 19 24 9 12
7 4 6 4 5 5 1 6 7 7 7 9 2 5 4 3 4 5 5 3 3 15 5 5 6 5 6 6 3 2 6 7 4 3 4 5 9 12 10 15 24 23 31 30 22
9 4 5 3 8 10 5 5 12 8 8 6 5 7 6 4 3 5 7 4 4 1 3 2 5 6 3 10 6 6 14 14 15 12 14 14 21 13 25 28 23 24 15 27 33
20 12 2 3 2 6 7 4 3 7 9 12 8 4 2 2 8 9 12 9 7 8 6 4 4 4 4 5 4 5 14 14 15 14 14 16 20 18 19 14 8 16 22 19 14

GFSSW_850_spd_069.txt.gz
Wind_Speed
24 23 22 22 22 21 19 19 18 17 16 15 14 13 13 13 14 15 18 14 12 14 14 13 13 12 12 6 4 4 4 2 4 6 3 10 3 7 4 8 6 8 4 4 20
24 24 23 21 21 20 19 18 18 16 15 15 13 13 11 11 13 17 13 14 14 16 15 14 14 13 6 6 3 4 4 8 3 5 4 9 4 11 6 7 5 7 7 7 23
24 23 23 22 20 19 19 18 17 16 15 14 14 13 12 11 10 10 14 17 13 16 14 14 15 12 4 4 3 4 5 5 2 2 5 6 1 6 8 3 11 14 13 14 25
25 24 22 21 20 19 19 19 17 16 16 14 13 13 12 15 6 12 16 17 15 16 16 15 16 9 4 5 4 3 2 5 6 4 5 6 4 4 11 7 6 15 12 16 24
24 25 22 21 20 19 19 17 18 16 15 14 14 13 14 12 5 12 17 17 17 17 17 15 18 7 6 5 6 3 3 5 5 4 3 4 4 5 12 14 7 7 17 18 22
24 25 23 21 20 19 18 17 16 15 14 13 14 15 14 8 8 11 15 16 17 17 17 13 11 6 6 5 4 5 5 4 3 3 2 3 2 2 3 15 14 12 13 19 22
24 25 22 21 20 19 17 17 16 15 13 12 13 14 10 9 11 11 15 15 15 16 17 13 11 6 9 5 6 7 3 2 2 2 2 3 4 7 10 5 10 18 17 20 21
24 24 22 21 19 18 18 14 14 13 12 11 11 14 5 10 12 12 15 15 15 14 15 12 10 8 4 11 6 5 5 1 1 4 1 3 7 3 2 7 12 14 17 22 24
23 22 21 21 20 18 17 16 14 12 12 10 10 7 3 12 12 14 14 14 15 13 13 11 10 5 6 5 4 6 3 3 5 7 2 2 6 5 4 2 8 6 14 19 23
21 21 20 20 19 18 16 14 12 11 11 10 7 5 7 9 15 15 14 15 11 15 11 8 3 4 3 4 6 5 3 3 3 2 1 2 9 7 15 13 17 18 19 22 24
19 21 20 20 19 18 18 16 10 4 13 5 5 2 9 14 16 15 16 16 16 10 4 3 4 7 10 6 3 6 4 4 0 1 2 5 7 12 23 17 24 25 25 27 29
16 16 18 18 18 18 19 12 10 7 6 6 4 5 13 15 8 17 20 7 7 4 5 5 4 6 6 4 4 4 3 1 1 1 1 5 11 11 18 15 24 26 24 19 19
16 16 17 15 16 17 20 13 14 11 4 7 6 6 10 12 5 20 19 8 5 6 5 6 2 10 6 4 5 2 4 3 3 2 3 5 8 6 5 6 11 13 17 21 19
20 19 18 17 15 17 18 18 13 9 3 4 6 7 10 8 2 17 18 8 2 7 8 3 3 7 5 4 5 4 5 5 4 3 3 2 5 6 5 10 9 18 15 14 10
18 21 20 22 8 19 16 17 15 8 3 4 5 8 12 6 13 8 13 4 8 7 6 6 7 7 4 5 5 4 4 5 3 4 3 4 1 7 4 7 8 11 7 10 11
8 17 23 20 15 20 17 18 14 4 7 5 5 7 7 3 2 7 6 3 7 5 5 2 1 2 5 3 2 8 6 7 5 3 1 5 5 5 3 2 2 7 7 8 8
12 12 15 18 17 22 19 19 3 5 1 6 5 6 4 5 4 3 7 5 7 6 4 1 1 1 3 6 4 4 6 2 3 2 5 1 2 8 6 5 3 8 5 7 7
10 9 12 10 18 16 20 3 4 6 6 3 4 8 6 7 1 4 7 7 3 5 4 6 3 7 4 6 8 5 6 5 7 4 3 2 5 5 5 7 1 4 6 8 11
11 13 12 17 12 19 16 9 9 5 7 8 6 6 4 4 6 4 7 7 8 9 7 5 4 1 1 3 6 5 3 5 7 3 3 3 6 10 5 6 9 12 12 15 17
6 9 13 13 10 14 4 11 5 2 2 4 6 6 7 7 5 7 9 5 6 10 2 8 4 1 1 3 3 4 7 3 3 2 3 4 4 5 3 6 4 8 13 16 21
4 4 7 17 14 3 3 8 3 6 2 5 5 6 6 8 7 6 10 2 6 8 5 6 4 1 3 6 8 3 3 4 4 4 5 1 5 6 5 8 9 10 15 8 11
3 1 9 18 4 4 6 6 4 3 5 2 2 4 7 8 6 6 10 6 12 14 10 6 5 4 5 1 1 2 6 6 5 4 2 3 5 4 9 13 17 11 14 12 6
2 1 7 16 4 4 5 4 4 3 3 4 2 1 2 6 5 4 5 1 9 8 9 8 3 3 3 3 2 4 4 4 5 3 7 5 5 2 6 7 7 9 8 8 5
4 2 2 12 2 3 4 6 6 8 2 1 3 2 4 3 4 6 4 3 3 4 7 8 4 7 11 4 6 6 6 6 6 3 5 8 5 5 9 5 5 10 12 8 4
5 3 3 4 6 2 4 7 7 6 7 6 2 5 4 3 3 4 3 3 5 2 4 3 4 3 3 5 4 3 5 8 10 13 8 8 10 7 8 5 7 11 9 5 5
6 3 2 1 2 6 3 7 13 5 8 7 6 7 13 7 5 4 6 2 3 2 2 1 3 3 1 2 2 2 7 7 3 1 5 3 8 8 19 12 12 11 6 6 4
16 6 2 1 2 6 7 3 6 8 4 4 9 6 7 5 16 16 13 11 5 4 3 4 5 3 3 5 5 5 12 9 5 6 6 8 5 5 3 1 1 3 2 5 6

GFSSW_850_spd_075.txt.gz
Wind_Speed
18 19 20 19 19 21 22 23 24 22 18 17 15 18 15 16 15 14 17 12 18 9 16 13 14 14 14 9 6 5 4 3 6 6 3 7 5 4 4 6 6 7 3 5 20
20 21 19 20 21 23 23 23 23 22 21 16 20 24 22 12 18 22 16 13 12 11 17 16 17 17 8 7 5 4 4 7 6 5 4 9 4 10 4 3 5 7 8 8 22
21 21 19 20 22 24 23 22 22 22 20 20 21 21 18 16 13 27 19 14 15 15 17 16 17 14 5 7 4 4 4 5 3 2 5 11 3 8 8 3 9 11 11 11 25
22 21 20 20 23 24 23 22 22 23 24 26 21 17 15 14 8 10 15 16 17 17 17 18 20 9 5 6 4 5 3 5 5 5 6 8 7 4 10 6 3 7 8 13 21
23 21 22 21 22 24 23 22 21 21 21 19 20 16 16 15 10 4 19 18 18 20 19 20 21 8 8 7 6 3 4 6 7 7 7 6 2 4 10 11 11 5 10 13 16
24 22 23 22 24 24 22 21 19 18 18 18 17 16 16 7 11 6 19 21 20 21 20 18 14 8 11 7 3 5 8 7 4 4 4 2 1 1 2 4 13 12 7 12 16
25 24 24 22 25 24 22 20 18 17 15 15 16 15 16 13 5 9 16 18 19 20 21 17 15 8 13 8 7 12 5 2 3 1 2 1 3 7 9 5 4 13 13 11 14
23 26 24 23 25 23 22 19 18 16 16 14 15 16 6 13 9 12 18 18 18 18 18 14 14 13 5 16 6 5 5 4 1 3 1 3 7 3 2 9 8 9 13 15 15
24 27 24 25 24 22 21 19 17 16 15 14 14 10 4 8 12 13 17 18 19 17 16 15 13 7 8 6 4 6 4 4 1 1 2 2 6 2 1 0 3 8 10 13 15
25 24 23 26 24 22 21 19 17 16 14 12 9 6 7 9 17 16 17 18 16 21 16 10 5 4 3 5 7 6 5 1 3 2 2 1 8 9 9 10 14 15 13 13 14
25 23 25 26 26 24 25 23 15 7 18 5 9 2 10 16 18 16 18 19 21 16 5 4 5 7 10 5 4 7 5 5 1 1 2 4 7 11 19 14 20 20 18 18 18
21 21 26 26 26 27 29 17 18 10 7 4 4 4 14 17 10 18 23 9 9 5 5 5 4 5 10 6 7 5 6 3 2 2 3 1 10 10 12 12 13 15 19 16 13
20 22 26 27 26 28 32 15 19 17 6 5 5 7 10 12 7 21 22 10 6 5 3 7 2 12 6 5 6 2 6 5 4 2 3 3 7 6 2 3 6 4 7 7 7
24 23 24 24 22 26 30 14 19 14 4 3 5 6 11 10 4 16 18 8 3 6 8 4 3 7 8 5 5 5 4 6 7 4 2 3 4 5 3 7 6 10 10 9 7
23 25 26 28 12 25 27 18 17 7 5 3 4 8 13 7 12 9 13 5 9 6 6 5 8 7 5 5 6 3 5 6 4 5 3 3 2 7 3 2 3 7 8 9 9
24 25 27 26 14 24 24 19 15 4 6 5 5 7 7 2 2 8 6 6 7 6 5 3 2 2 4 4 2 10 7 8 5 3 1 1 4 5 3 3 2 4 6 8 9
15 28 29 29 19 25 26 24 4 5 4 6 6 6 5 5 3 3 7 7 7 6 4 3 1 1 4 8 6 4 6 3 2 2 4 2 3 8 3 2 3 2 6 10 13
1 15 30 28 21 28 32 4 4 5 6 3 5 8 6 7 1 3 7 6 2 6 4 7 3 7 3 5 8 6 6 5 7 4 2 2 5 5 2 8 3 4 11 17 20
4 9 18 27 27 29 25 9 9 7 9 9 5 7 4 3 5 4 9 11 7 9 7 5 4 2 2 1 3 5 5 4 8 2 3 3 6 5 3 5 9 13 21 25 23
6 4 7 13 29 29 10 13 7 5 7 7 7 5 8 9 6 7 10 6 7 8 2 7 5 2 1 2 4 4 8 4 3 3 3 3 5 5 5 5 5 10 19 21 22
4 3 5 7 18 14 14 7 3 4 4 6 6 6 6 8 6 7 12 1 7 8 2 6 4 0 3 5 8 3 3 5 5 4 5 3 6 6 8 8 10 14 18 19 20
6 1 8 13 2 2 8 7 4 5 2 2 4 5 8 9 6 6 10 4 14 16 10 5 5 4 5 1 1 1 6 6 5 5 1 3 5 1 6 11 16 15 15 15 16
5 4 7 11 3 2 2 4 2 4 5 4 4 2 3 7 5 5 6 3 17 11 12 8 2 3 3 2 3 5 5 4 5 4 7 6 5 2 6 7 11 17 15 14 14
5 2 2 3 2 3 4 3 6 2 3 3 4 4 4 4 2 8 6 2 10 8 10 15 4 8 12 5 7 6 6 4 4 3 6 6 6 5 7 7 9 11 14 16 15
3 1 2 3 3 2 6 8 6 5 1 3 1 3 5 5 4 5 4 4 2 8 4 6 7 5 1 3 5 5 11 11 10 14 8 8 11 18 17 12 17 12 12 15 14
5 3 3 1 1 4 8 7 7 5 6 3 2 6 1 3 7 8 8 5 6 3 4 0 3 4 2 2 2 4 9 18 19 5 1 6 7 6 21 23 16 15 18 16 13
9 7 4 1 3 3 3 4 10 4 1 7 7 4 6 2 7 13 7 11 11 9 5 7 6 3 4 3 5 4 15 13 7 6 12 10 7 9 7 22 23 20 20 18 14